M I D A S
Marine Information and Data Acquisition System
Tripno 1314 of the Zeeleeuw from 2007-07-10 09:12:23 to 2007-07-10 14:21:19
Back to CruiseResearch ActivitiesStationsMapUnderway DataData graphs

EquipmentUnitsComments
TimeDGPSUTC
LatitudeDGPSDM.mWGS84
LongitudeDGPSDM.mWGS84
SpeedMeteo Stationm/sRelative wind speed
DirectionMeteo StationdegRelative wind direction
TemperatureMeteo Stationdeg CelciusAir temperature
PressureMeteo StationPaAtmospheric pressure
HumidityMeteo Station%Relative humidity
Missing or incorrect values are displayed as -999
Metereological data collected by the RV Zeeleeuw from 2007-07-10 05:43:28 to 2007-07-10 14:29:43
Time Latitude Longitude Speed Direction Temperature Pressure Humidity
2007-07-10 05:44 51°13.599 2°56.091 2.4 17 12.1 101100 100
2007-07-10 05:45 51°13.599 2°56.092 2 21 12.1 101100 100
2007-07-10 05:46 51°13.6 2°56.094 1.7 24 12.2 101100 100
2007-07-10 05:47 51°13.6 2°56.095 1.9 27 12.2 101100 100
2007-07-10 05:48 51°13.6 2°56.095 1.9 18 12.2 101100 100
2007-07-10 05:49 51°13.6 2°56.095 1.7 17 12.3 101100 100
2007-07-10 05:50 51°13.6 2°56.094 1.6 32 12.3 101100 100
2007-07-10 05:51 51°13.6 2°56.095 2.3 17 12.4 101100 100
2007-07-10 05:52 51°13.6 2°56.096 2.1 21 12.4 101100 100
2007-07-10 05:53 51°13.6 2°56.096 3 15 12.4 101100 100
2007-07-10 05:54 51°13.601 2°56.095 2.4 18 12.4 101100 100
2007-07-10 05:55 51°13.6 2°56.096 1.8 14 12.4 101100 100
2007-07-10 05:56 51°13.601 2°56.095 1.8 14 12.4 101100 100
2007-07-10 05:57 51°13.601 2°56.094 2 18 12.5 101100 100
2007-07-10 05:58 51°13.6 2°56.095 2.2 27 12.5 101100 100
2007-07-10 05:59 51°13.6 2°56.095 2.1 19 12.5 101100 100
2007-07-10 06:00 51°13.6 2°56.096 1.9 18 12.6 101100 100
2007-07-10 06:01 51°13.599 2°56.095 1.9 10 12.6 101100 100
2007-07-10 06:02 51°13.599 2°56.095 2 23 12.6 101100 100
2007-07-10 06:03 51°13.599 2°56.095 1.3 21 12.6 101100 100
2007-07-10 06:04 51°13.599 2°56.096 1.4 35 12.6 101100 100
2007-07-10 06:05 51°13.599 2°56.096 2.2 15 12.7 101100 100
2007-07-10 06:06 51°13.599 2°56.096 2.3 28 12.7 101100 100
2007-07-10 06:07 51°13.599 2°56.096 2 13 12.7 101100 100
2007-07-10 06:08 51°13.599 2°56.096 1.5 14 12.7 101100 100
2007-07-10 06:09 51°13.599 2°56.097 1.5 26 12.7 101100 100
2007-07-10 06:10 51°13.599 2°56.097 2.1 10 12.7 101100 100
2007-07-10 06:11 51°13.599 2°56.097 1.7 15 12.6 101100 100
2007-07-10 06:12 51°13.598 2°56.096 1.6 2 12.7 101100 100
2007-07-10 06:13 51°13.597 2°56.097 1.9 20 12.8 101100 100
2007-07-10 06:14 51°13.597 2°56.097 2.4 15 12.7 101100 100
2007-07-10 06:15 51°13.597 2°56.097 1.8 26 12.8 101100 100
2007-07-10 06:16 51°13.598 2°56.096 1.6 18 12.8 101100 100
2007-07-10 06:17 51°13.598 2°56.096 1.5 10 12.8 101100 100
2007-07-10 06:18 51°13.598 2°56.096 1.7 9 12.9 101110 100
2007-07-10 06:19 51°13.598 2°56.096 1.9 19 13 101100 100
2007-07-10 06:20 51°13.597 2°56.096 1.4 24 13.2 101100 100
2007-07-10 06:21 51°13.598 2°56.094 1.9 29 13.2 101110 100
2007-07-10 06:22 51°13.598 2°56.094 1.3 16 13.3 101100 100
2007-07-10 06:23 51°13.599 2°56.094 1.3 15 13.3 101100 100
2007-07-10 06:24 51°13.599 2°56.093 1.9 21 13.4 101100 100
2007-07-10 06:25 51°13.599 2°56.094 1.2 26 13.4 101100 100
2007-07-10 06:26 51°13.6 2°56.093 1.5 41 13.5 101100 100
2007-07-10 06:27 51°13.6 2°56.093 1.4 22 13.6 101100 100
2007-07-10 06:28 51°13.6 2°56.093 2.1 36 13.7 101100 100
2007-07-10 06:29 51°13.599 2°56.094 1.4 36 13.7 101110 100
2007-07-10 06:30 51°13.598 2°56.096 3.2 22 13.8 101110 100
2007-07-10 06:31 51°13.597 2°56.097 3.6 75 13.9 101110 100
2007-07-10 06:32 51°13.597 2°56.097 5.2 41 13.9 101110 100
2007-07-10 06:33 51°13.597 2°56.098 3.5 41 13.9 101110 100
2007-07-10 06:34 51°13.597 2°56.097 3.4 80 14 101100 100
2007-07-10 06:35 51°13.597 2°56.097 3.4 78 14.1 101100 100
2007-07-10 06:36 51°13.598 2°56.097 4.1 80 14.2 101110 100
2007-07-10 06:37 51°13.597 2°56.097 3.9 77 14.2 101100 99
2007-07-10 06:38 51°13.596 2°56.097 3.6 44 14.3 101100 98
2007-07-10 06:39 51°13.597 2°56.097 3.2 75 14.5 101100 98
2007-07-10 06:40 51°13.597 2°56.096 5.3 36 14.5 101100 96
2007-07-10 06:41 51°13.597 2°56.092 3.2 45 14.6 101100 96
2007-07-10 06:42 51°13.595 2°56.098 3.9 44 14.6 101100 94
2007-07-10 06:43 51°13.59 2°56.096 3.4 80 14.7 101100 93
2007-07-10 06:44 51°13.592 2°56.1 4.2 42 14.8 101100 91
2007-07-10 06:45 51°13.595 2°56.098 3.2 38 14.8 101090 91
2007-07-10 06:46 51°13.595 2°56.098 4.3 36 14.9 101100 90
2007-07-10 06:47 51°13.596 2°56.099 4.3 28 15 101090 89
2007-07-10 06:48 51°13.596 2°56.097 4 30 15 101090 88
2007-07-10 06:49 51°13.596 2°56.096 3.1 36 15.1 101090 88
2007-07-10 06:50 51°13.596 2°56.098 3.5 34 15.1 101100 87
2007-07-10 06:51 51°13.596 2°56.099 3.3 37 15.2 101090 87
2007-07-10 06:52 51°13.596 2°56.099 4.1 38 15.1 101100 85
2007-07-10 06:53 51°13.597 2°56.099 4.5 44 15.2 101100 86
2007-07-10 06:54 51°13.597 2°56.098 1.9 26 15.2 101100 85
2007-07-10 06:55 51°13.597 2°56.098 3.3 43 15.2 101100 85
2007-07-10 06:56 51°13.597 2°56.098 3.4 21 15.2 101100 84
2007-07-10 06:57 51°13.597 2°56.097 3.4 43 15.3 101100 84
2007-07-10 06:58 51°13.597 2°56.097 3.5 36 15.3 101100 84
2007-07-10 06:59 51°13.597 2°56.097 5.4 24 15.3 101100 83
2007-07-10 07:00 51°13.597 2°56.097 3.8 32 15.4 101100 83
2007-07-10 07:01 51°13.598 2°56.096 3.8 22 15.3 101100 82
2007-07-10 07:02 51°13.598 2°56.097 3.2 45 15.3 101100 82
2007-07-10 07:03 51°13.598 2°56.096 3.5 38 15.3 101100 82
2007-07-10 07:04 51°13.598 2°56.097 6.2 82 15.4 101100 82
2007-07-10 07:05 51°13.598 2°56.097 4.9 41 15.3 101100 81
2007-07-10 07:06 51°13.597 2°56.098 3.5 36 15.3 101100 82
2007-07-10 07:07 51°13.598 2°56.097 2.6 40 15.3 101100 83
2007-07-10 07:08 51°13.597 2°56.1 4 29 15.3 101100 82
2007-07-10 07:09 51°13.597 2°56.098 1.9 42 15.3 101100 83
2007-07-10 07:10 51°13.598 2°56.093 3 27 15.4 101100 82
2007-07-10 07:11 51°13.597 2°56.098 2.6 43 15.4 101100 83
2007-07-10 07:12 51°13.597 2°56.099 5.1 21 15.4 101100 82
2007-07-10 07:13 51°13.597 2°56.099 6.8 45 15.3 101100 80
2007-07-10 07:14 51°13.597 2°56.1 3.5 36 15.2 101100 81
2007-07-10 07:15 51°13.597 2°56.099 4.9 26 15.2 101100 81
2007-07-10 07:16 51°13.597 2°56.103 3.3 80 15.2 101100 82
2007-07-10 07:17 51°13.597 2°56.095 4.9 28 15.2 101100 82
2007-07-10 07:18 51°13.597 2°56.097 5.7 23 15.2 101100 82
2007-07-10 07:19 51°13.597 2°56.1 3 82 15.1 101100 81
2007-07-10 07:20 51°13.597 2°56.097 3.8 19 15.1 101100 82
2007-07-10 07:21 51°13.597 2°56.097 3.2 28 15.1 101100 82
2007-07-10 07:22 51°13.598 2°56.09 4 28 15.1 101100 82
2007-07-10 07:23 51°13.598 2°56.095 4.7 34 15.1 101100 82
2007-07-10 07:24 51°13.598 2°56.097 3.3 43 15.2 101110 82
2007-07-10 07:25 51°13.598 2°56.096 4 76 15.1 101110 81
2007-07-10 07:26 51°13.597 2°56.095 3.9 28 15.2 101110 82
2007-07-10 07:27 51°13.598 2°56.095 3.2 40 15.2 101110 82
2007-07-10 07:28 51°13.599 2°56.096 3.2 81 15.2 101110 81
2007-07-10 07:29 51°13.603 2°56.1 5 23 15.2 101110 81
2007-07-10 07:30 51°13.605 2°56.104 3.9 77 15.2 101110 82
2007-07-10 07:31 51°13.598 2°56.1 3.7 28 15.2 101110 82
2007-07-10 07:32 51°13.591 2°56.095 3.9 39 15.2 101110 82
2007-07-10 07:33 51°13.592 2°56.097 5.3 80 15.1 101110 81
2007-07-10 07:34 51°13.593 2°56.102 3.1 22 15.1 101120 81
2007-07-10 07:35 51°13.595 2°56.102 3.5 81 15.2 101110 82
2007-07-10 07:36 51°13.596 2°56.103 3.9 43 15.2 101110 81
2007-07-10 07:37 51°13.593 2°56.099 3.9 33 15.2 101120 81
2007-07-10 07:38 51°13.595 2°56.098 2.6 43 15.2 101120 80
2007-07-10 07:39 51°13.6 2°56.103 3.1 23 15.2 101120 80
2007-07-10 07:40 51°13.603 2°56.104 3.2 42 15.2 101120 80
2007-07-10 07:41 51°13.596 2°56.099 2.7 44 15.3 101120 80
2007-07-10 07:42 51°13.601 2°56.105 3.8 41 15.2 101120 80
2007-07-10 07:43 51°13.595 2°56.097 2.1 77 15.3 101120 80
2007-07-10 07:44 51°13.59 2°56.091 3.4 45 15.3 101120 79
2007-07-10 07:45 51°13.594 2°56.094 2.8 38 15.3 101120 79
2007-07-10 07:46 51°13.596 2°56.095 3.9 36 15.3 101120 78
2007-07-10 07:47 51°13.596 2°56.094 4.7 43 15.2 101110 78
2007-07-10 07:48 51°13.596 2°56.094 3.8 39 15.2 101110 78
2007-07-10 07:49 51°13.597 2°56.094 4.4 39 15.2 101110 78
2007-07-10 07:50 51°13.598 2°56.094 4.3 81 15.3 101110 78
2007-07-10 07:51 51°13.599 2°56.095 3.5 37 15.3 101110 77
2007-07-10 07:52 51°13.598 2°56.096 4.7 80 15.3 101110 77
2007-07-10 07:53 51°13.598 2°56.097 3.8 82 15.3 101120 78
2007-07-10 07:54 51°13.594 2°56.087 5.3 27 15.2 101120 77
2007-07-10 07:55 51°13.602 2°56.101 3.2 39 15.2 101120 77
2007-07-10 07:56 51°13.599 2°56.096 3.9 26 15.2 101120 78
2007-07-10 07:57 51°13.6 2°56.094 3.5 29 15.2 101120 77
2007-07-10 07:58 51°13.602 2°56.093 2.8 37 15.3 101110 77
2007-07-10 07:59 51°13.603 2°56.095 3.1 25 15.4 101110 77
2007-07-10 08:00 51°13.604 2°56.097 3.5 28 15.4 101120 76
2007-07-10 08:01 51°13.605 2°56.097 2.6 28 15.3 101120 75
2007-07-10 08:02 51°13.605 2°56.097 4.1 30 15.4 101120 76
2007-07-10 08:03 51°13.604 2°56.096 4.4 42 15.4 101120 75
2007-07-10 08:04 51°13.602 2°56.097 5.6 38 15.5 101120 75
2007-07-10 08:05 51°13.6 2°56.097 7 21 15.4 101110 74
2007-07-10 08:06 51°13.599 2°56.097 3.1 27 15.3 101120 73
2007-07-10 08:07 51°13.597 2°56.097 3.9 28 15.3 101110 74
2007-07-10 08:08 51°13.599 2°56.096 3.1 25 15.3 101110 74
2007-07-10 08:09 51°13.599 2°56.096 4.8 21 15.3 101110 74
2007-07-10 08:10 51°13.598 2°56.096 3.7 29 15.3 101120 74
2007-07-10 08:11 51°13.597 2°56.097 4.3 44 15.3 101120 74
2007-07-10 08:12 51°13.598 2°56.096 3.8 44 15.3 101110 73
2007-07-10 08:13 51°13.598 2°56.097 2 40 15.4 101110 74
2007-07-10 08:14 51°13.598 2°56.097 4 29 15.6 101110 74
2007-07-10 08:15 51°13.598 2°56.097 3 30 15.6 101110 73
2007-07-10 08:16 51°13.596 2°56.097 3.8 41 15.7 101110 73
2007-07-10 08:17 51°13.596 2°56.097 7.6 37 15.7 101110 73
2007-07-10 08:18 51°13.594 2°56.098 4.9 25 15.7 101110 72
2007-07-10 08:19 51°13.594 2°56.098 4 25 15.6 101120 72
2007-07-10 08:20 51°13.595 2°56.098 3.7 81 15.5 101120 73
2007-07-10 08:21 51°13.595 2°56.098 4.6 27 15.4 101120 74
2007-07-10 08:22 51°13.595 2°56.099 3.5 43 15.4 101120 74
2007-07-10 08:23 51°13.595 2°56.099 4.2 41 15.5 101120 75
2007-07-10 08:24 51°13.596 2°56.098 3.8 43 15.5 101120 74
2007-07-10 08:25 51°13.596 2°56.098 4.8 32 15.5 101120 73
2007-07-10 08:26 51°13.596 2°56.097 3.8 39 15.5 101120 73
2007-07-10 08:27 51°13.596 2°56.097 5.3 21 -999 -999 -999
2007-07-10 08:28 51°13.597 2°56.096 5.8 40 15.4 101130 70
2007-07-10 08:29 51°13.598 2°56.096 5.2 27 15.4 101130 69
2007-07-10 08:30 51°13.596 2°56.097 6 20 15.3 101130 68
2007-07-10 08:31 51°13.594 2°56.098 3.2 26 15.3 101130 67
2007-07-10 08:32 51°13.594 2°56.098 3.9 19 15.3 101130 68
2007-07-10 08:33 51°13.594 2°56.098 5.1 20 15.2 101130 66
2007-07-10 08:34 51°13.593 2°56.098 6.5 38 15.3 101130 64
2007-07-10 08:35 51°13.594 2°56.098 4.2 27 15.4 101130 65
2007-07-10 08:36 51°13.596 2°56.099 3.8 36 15.5 101130 65
2007-07-10 08:37 51°13.597 2°56.098 4.5 31 15.6 101130 64
2007-07-10 08:38 51°13.597 2°56.099 3.1 26 15.7 101130 65
2007-07-10 08:39 51°13.597 2°56.098 3.6 34 15.7 101130 65
2007-07-10 08:40 51°13.596 2°56.097 3.4 28 15.8 101130 66
2007-07-10 08:41 51°13.597 2°56.096 2.9 29 15.9 101130 67
2007-07-10 08:42 51°13.596 2°56.096 5.5 36 15.9 101140 67
2007-07-10 08:43 51°13.596 2°56.095 3.1 40 15.8 101140 65
2007-07-10 08:44 51°13.596 2°56.096 3.9 27 15.8 101140 66
2007-07-10 08:45 51°13.596 2°56.096 4 23 15.8 101140 65
2007-07-10 08:46 51°13.596 2°56.096 4.1 27 15.8 101140 66
2007-07-10 08:47 51°13.595 2°56.097 2.8 19 15.8 101140 64
2007-07-10 08:48 51°13.596 2°56.096 4.8 28 15.6 101140 64
2007-07-10 08:49 51°13.597 2°56.096 4.1 20 15.5 101140 65
2007-07-10 08:50 51°13.598 2°56.095 3.8 25 15.4 101140 65
2007-07-10 08:51 51°13.597 2°56.095 5.3 26 15.5 101140 66
2007-07-10 08:52 51°13.598 2°56.096 6.3 27 15.4 101150 66
2007-07-10 08:53 51°13.598 2°56.096 5.2 22 15.3 101140 66
2007-07-10 08:54 51°13.597 2°56.097 4.6 81 15.4 101150 68
2007-07-10 08:55 51°13.595 2°56.098 2.4 78 15.5 101140 67
2007-07-10 08:56 51°13.598 2°56.094 7 75 15.5 101140 65
2007-07-10 08:57 51°13.597 2°56.096 4.9 84 15.4 101150 64
2007-07-10 08:58 51°13.597 2°56.096 3.4 82 15.3 101150 65
2007-07-10 08:59 51°13.598 2°56.096 4.8 81 15.3 101150 65
2007-07-10 09:00 51°13.598 2°56.096 5.2 78 15.3 101150 65
2007-07-10 09:01 51°13.599 2°56.096 4.5 75 15.3 101150 66
2007-07-10 09:02 51°13.599 2°56.095 4.6 82 15.4 101150 67
2007-07-10 09:03 51°13.599 2°56.096 3 81 15.5 101150 65
2007-07-10 09:04 51°13.598 2°56.096 2.3 82 15.7 101150 64
2007-07-10 09:05 51°13.598 2°56.096 4.1 42 15.7 101150 63
2007-07-10 09:06 51°13.598 2°56.096 4.3 81 15.6 101150 62
2007-07-10 09:07 51°13.598 2°56.096 4.6 83 15.6 101150 63
2007-07-10 09:08 51°13.597 2°56.097 4 78 15.7 101160 63
2007-07-10 09:09 51°13.598 2°56.096 3.4 74 15.7 101160 64
2007-07-10 09:10 51°13.599 2°56.095 4.5 81 15.7 101160 64
2007-07-10 09:11 51°13.599 2°56.096 5.9 75 15.6 101160 62
2007-07-10 09:12 51°13.6 2°56.084 5 80 15.6 101160 62
2007-07-10 09:13 51°13.629 2°55.994 6.9 82 16.1 101160 62
2007-07-10 09:14 51°13.673 2°55.891 5 82 16.2 101160 62
2007-07-10 09:15 51°13.705 2°55.794 5.1 81 16 101160 61
2007-07-10 09:16 51°13.714 2°55.717 3.9 77 15.9 101170 60
2007-07-10 09:17 51°13.727 2°55.731 3.5 285 16 101170 61
2007-07-10 09:18 51°13.72 2°55.729 5.3 279 16 101170 60
2007-07-10 09:19 51°13.77 2°55.688 5.5 284 16 101160 61
2007-07-10 09:20 51°13.872 2°55.606 7.9 283 16.1 101150 60
2007-07-10 09:21 51°13.999 2°55.515 5.2 279 16 101150 60
2007-07-10 09:22 51°14.127 2°55.424 6.6 283 16.1 101150 62
2007-07-10 09:23 51°14.253 2°55.293 9.3 281 16.2 101150 63
2007-07-10 09:24 51°14.355 2°55.092 11.3 285 16.1 101140 64
2007-07-10 09:25 51°14.472 2°54.832 11.1 282 16 101140 63
2007-07-10 09:26 51°14.588 2°54.563 11.2 279 15.9 101140 63
2007-07-10 09:27 51°14.711 2°54.288 11.7 277 15.8 101140 64
2007-07-10 09:28 51°14.831 2°54.024 11.5 283 15.7 101150 65
2007-07-10 09:29 51°14.913 2°53.722 11.9 280 15.7 101140 65
2007-07-10 09:30 51°14.92 2°53.397 11 278 15.6 101150 65
2007-07-10 09:31 51°14.929 2°53.07 10.3 280 15.6 101150 66
2007-07-10 09:32 51°14.941 2°52.741 11.6 279 15.6 101150 67
2007-07-10 09:33 51°14.953 2°52.422 12 283 15.6 101150 67
2007-07-10 09:34 51°14.967 2°52.098 11.5 278 15.6 101150 69
2007-07-10 09:35 51°14.982 2°51.768 11.6 283 15.6 101150 68
2007-07-10 09:36 51°15.048 2°51.459 12.1 284 15.6 101150 69
2007-07-10 09:37 51°15.124 2°51.153 11.4 275 15.5 101150 68
2007-07-10 09:38 51°15.19 2°50.843 11.7 280 15.5 101160 68
2007-07-10 09:39 51°15.263 2°50.536 11.8 276 15.5 101150 69
2007-07-10 09:40 51°15.336 2°50.229 11 280 15.4 101160 68
2007-07-10 09:41 51°15.407 2°49.921 10.6 279 15.5 101140 69
2007-07-10 09:42 51°15.476 2°49.617 11.8 282 15.5 101150 69
2007-07-10 09:43 51°15.549 2°49.304 10.4 276 15.5 101150 70
2007-07-10 09:44 51°15.618 2°49.002 10.4 278 15.5 101160 70
2007-07-10 09:45 51°15.69 2°48.687 10.8 279 15.5 101150 70
2007-07-10 09:46 51°15.76 2°48.375 11.6 283 15.6 101150 70
2007-07-10 09:47 51°15.831 2°48.063 12.1 279 15.6 101150 71
2007-07-10 09:48 51°15.902 2°47.754 11.6 281 15.6 101150 71
2007-07-10 09:49 51°15.972 2°47.453 11.3 278 15.5 101150 70
2007-07-10 09:50 51°16.045 2°47.148 10.2 278 15.5 101160 71
2007-07-10 09:51 51°16.119 2°46.838 10.7 283 15.5 101160 71
2007-07-10 09:52 51°16.192 2°46.529 10.6 277 15.5 101160 71
2007-07-10 09:53 51°16.268 2°46.223 11.9 277 15.5 101150 71
2007-07-10 09:54 51°16.341 2°45.914 11 277 15.5 101150 72
2007-07-10 09:55 51°16.416 2°45.6 10.9 280 15.5 101160 71
2007-07-10 09:56 51°16.491 2°45.288 12.2 285 15.5 101160 72
2007-07-10 09:57 51°16.566 2°44.975 10.7 282 15.6 101160 73
2007-07-10 09:58 51°16.64 2°44.663 9.8 278 15.6 101150 73
2007-07-10 09:59 51°16.715 2°44.35 11.4 276 15.5 101160 73
2007-07-10 10:00 51°16.79 2°44.036 10.7 325 15.6 101160 72
2007-07-10 10:01 51°16.896 2°43.748 10.6 285 15.6 101160 72
2007-07-10 10:02 51°17.027 2°43.485 10.2 282 15.6 101150 71
2007-07-10 10:03 51°17.155 2°43.206 9.4 279 15.7 101150 71
2007-07-10 10:04 51°17.279 2°42.934 9.4 284 15.7 101150 71
2007-07-10 10:05 51°17.404 2°42.665 10.8 279 15.7 101160 71
2007-07-10 10:06 51°17.533 2°42.394 11.4 277 15.7 101150 72
2007-07-10 10:07 51°17.659 2°42.123 9.5 279 15.7 101150 72
2007-07-10 10:08 51°17.782 2°41.849 10.9 283 15.7 101160 72
2007-07-10 10:09 51°17.912 2°41.58 9.7 320 15.7 101150 71
2007-07-10 10:10 51°18.038 2°41.31 10.2 284 15.6 101150 71
2007-07-10 10:11 51°18.164 2°41.04 9.7 280 15.6 101150 70
2007-07-10 10:12 51°18.29 2°40.776 10.1 282 15.6 101160 69
2007-07-10 10:13 51°18.417 2°40.51 10.2 277 15.6 101160 69
2007-07-10 10:14 51°18.546 2°40.248 11.2 280 15.6 101160 66
2007-07-10 10:15 51°18.675 2°39.979 11 276 15.6 101150 67
2007-07-10 10:16 51°18.805 2°39.709 9.8 281 15.7 101160 66
2007-07-10 10:17 51°18.935 2°39.436 10.6 285 15.6 101150 65
2007-07-10 10:18 51°19.062 2°39.161 9.2 280 15.7 101160 64
2007-07-10 10:19 51°19.184 2°38.881 9.7 277 15.7 101160 65
2007-07-10 10:20 51°19.302 2°38.598 11.1 278 15.7 101160 64
2007-07-10 10:21 51°19.421 2°38.316 9.1 279 15.7 101170 64
2007-07-10 10:22 51°19.539 2°38.034 10.3 278 15.7 101160 63
2007-07-10 10:23 51°19.659 2°37.755 9.1 281 15.8 101150 65
2007-07-10 10:24 51°19.778 2°37.477 9.9 282 15.7 101150 64
2007-07-10 10:25 51°19.898 2°37.199 9.1 280 15.7 101170 64
2007-07-10 10:26 51°19.988 2°36.991 6.5 279 15.8 101170 64
2007-07-10 10:27 51°20.033 2°36.89 4.7 277 15.8 101180 64
2007-07-10 10:28 51°20.079 2°36.868 4.2 284 15.8 101180 65
2007-07-10 10:29 51°20.098 2°36.884 3.9 77 15.8 101180 65
2007-07-10 10:30 51°20.107 2°36.9 4 81 15.6 101180 65
2007-07-10 10:31 51°20.118 2°36.92 3 79 15.5 101190 67
2007-07-10 10:32 51°20.13 2°36.942 3.9 82 15.5 101180 68
2007-07-10 10:33 51°20.143 2°36.978 4.3 77 15.7 101180 68
2007-07-10 10:34 51°20.159 2°36.995 5.2 76 15.6 101190 67
2007-07-10 10:35 51°20.17 2°37.016 4 27 15.4 101190 67
2007-07-10 10:36 51°20.157 2°37.055 5.1 8 15.5 101190 69
2007-07-10 10:37 51°20.123 2°37.039 5.5 279 15.5 101180 71
2007-07-10 10:38 51°20.107 2°36.997 5.8 282 15.6 101190 73
2007-07-10 10:39 51°20.094 2°36.955 4.9 278 15.6 101180 72
2007-07-10 10:40 51°20.086 2°36.921 5.7 281 15.5 101180 72
2007-07-10 10:41 51°20.089 2°36.92 4.8 284 15.5 101180 71
2007-07-10 10:42 51°20.092 2°36.923 4.7 278 15.5 101190 70
2007-07-10 10:43 51°20.098 2°36.929 5 280 15.5 101190 70
2007-07-10 10:44 51°20.107 2°36.948 4.5 282 15.5 101190 70
2007-07-10 10:45 51°20.117 2°36.969 4.7 281 15.5 101190 70
2007-07-10 10:46 51°20.119 2°36.967 5.8 278 15.5 101190 70
2007-07-10 10:47 51°20.102 2°36.954 6.2 350 15.5 101180 72
2007-07-10 10:48 51°20.079 2°36.926 5.6 281 15.3 101190 72
2007-07-10 10:49 51°20.065 2°36.909 5.4 277 15.2 101190 73
2007-07-10 10:50 51°20.06 2°36.909 4.8 279 15.2 101190 75
2007-07-10 10:51 51°20.058 2°36.912 4.8 279 15.2 101190 75
2007-07-10 10:52 51°20.055 2°36.914 5.5 280 15.2 101190 76
2007-07-10 10:53 51°20.055 2°36.921 4.9 277 15.1 101190 75
2007-07-10 10:54 51°20.058 2°36.93 4.4 277 15 101190 75
2007-07-10 10:55 51°20.063 2°36.942 4.4 347 15.1 101200 76
2007-07-10 10:56 51°20.067 2°36.957 3.9 349 15.1 101200 76
2007-07-10 10:57 51°20.073 2°36.975 4.9 353 15.1 101200 76
2007-07-10 10:58 51°20.081 2°36.995 4.5 4 15 101200 75
2007-07-10 10:59 51°20.089 2°37.015 4.4 12 15 101200 75
2007-07-10 11:00 51°20.098 2°37.035 5.3 16 15 101200 76
2007-07-10 11:01 51°20.107 2°37.053 4.3 22 15.1 101200 75
2007-07-10 11:02 51°20.115 2°37.071 4.6 22 15.2 101200 76
2007-07-10 11:03 51°20.124 2°37.088 4.7 31 15.1 101210 74
2007-07-10 11:04 51°20.133 2°37.105 4.2 28 15.1 101200 74
2007-07-10 11:05 51°20.134 2°37.126 4.5 11 15.2 101210 74
2007-07-10 11:06 51°20.088 2°37.099 7.5 340 15.2 101200 74
2007-07-10 11:07 51°20.053 2°36.97 7.1 281 15.3 101200 75
2007-07-10 11:08 51°20.045 2°36.859 5.3 285 15.3 101200 75
2007-07-10 11:09 51°20.03 2°36.815 5.5 279 15.4 101200 75
2007-07-10 11:10 51°20.025 2°36.795 4.4 280 15.3 101200 73
2007-07-10 11:11 51°20.024 2°36.784 4.6 285 15.4 101200 73
2007-07-10 11:12 51°20.025 2°36.78 5 277 15.5 101200 72
2007-07-10 11:13 51°20.028 2°36.782 4.3 278 15.5 101200 73
2007-07-10 11:14 51°20.032 2°36.789 4.5 283 15.4 101200 72
2007-07-10 11:15 51°20.036 2°36.801 4.2 279 15.4 101210 73
2007-07-10 11:16 51°20.042 2°36.815 4.1 353 15.4 101210 73
2007-07-10 11:17 51°20.048 2°36.831 4.3 2 15.4 101210 75
2007-07-10 11:18 51°20.055 2°36.848 4 12 15.3 101210 75
2007-07-10 11:19 51°20.05 2°36.865 3.6 25 15.2 101210 75
2007-07-10 11:20 51°20.037 2°36.888 4 33 15.2 101210 76
2007-07-10 11:21 51°20.028 2°36.918 3.4 29 15.2 101210 77
2007-07-10 11:22 51°20.028 2°36.935 4 26 15.3 101210 76
2007-07-10 11:23 51°20.038 2°36.945 4 29 15.2 101210 75
2007-07-10 11:24 51°20.049 2°36.955 3.3 31 15.3 101210 75
2007-07-10 11:25 51°20.048 2°36.976 3.3 28 15.3 101210 75
2007-07-10 11:26 51°20.048 2°36.993 3.4 28 15.4 101210 76
2007-07-10 11:27 51°20.048 2°37.009 4.1 26 15.5 101210 75
2007-07-10 11:28 51°20.049 2°37.023 3.4 28 15.5 101210 75
2007-07-10 11:29 51°20.051 2°37.035 3 22 15.4 101210 73
2007-07-10 11:30 51°20.054 2°37.046 3.8 27 15.4 101210 73
2007-07-10 11:31 51°20.056 2°37.056 3.6 24 15.3 101210 72
2007-07-10 11:32 51°20.059 2°37.066 3.3 22 15.3 101210 72
2007-07-10 11:33 51°20.063 2°37.075 3.3 14 15.4 101210 73
2007-07-10 11:34 51°20.066 2°37.085 3.7 12 15.4 101200 72
2007-07-10 11:35 51°20.071 2°37.096 3.6 17 15.3 101200 70
2007-07-10 11:36 51°20.075 2°37.107 2.9 22 15.3 101200 70
2007-07-10 11:37 51°20.08 2°37.117 3.5 18 15.3 101200 70
2007-07-10 11:38 51°20.084 2°37.127 4 24 15.4 101200 71
2007-07-10 11:39 51°20.088 2°37.138 3.8 25 15.4 101210 72
2007-07-10 11:40 51°20.094 2°37.149 3.5 22 15.4 101200 72
2007-07-10 11:41 51°20.097 2°37.161 3.6 27 15.4 101200 72
2007-07-10 11:42 51°20.102 2°37.171 3.6 28 15.5 101200 73
2007-07-10 11:43 51°20.107 2°37.18 3.3 28 15.6 101200 74
2007-07-10 11:44 51°20.111 2°37.19 3.5 21 15.5 101200 73
2007-07-10 11:45 51°20.115 2°37.2 3.5 19 15.6 101200 74
2007-07-10 11:46 51°20.12 2°37.21 3.4 25 15.7 101200 75
2007-07-10 11:47 51°20.123 2°37.22 3.4 25 15.7 101200 74
2007-07-10 11:48 51°20.126 2°37.229 3.8 29 15.6 101200 74
2007-07-10 11:49 51°20.13 2°37.237 3.1 30 15.6 101200 74
2007-07-10 11:50 51°20.134 2°37.245 3.3 24 15.6 101210 74
2007-07-10 11:51 51°20.138 2°37.253 3.4 28 15.5 101210 73
2007-07-10 11:52 51°20.141 2°37.261 3.4 21 15.6 101210 73
2007-07-10 11:53 51°20.145 2°37.268 3.4 23 15.6 101210 73
2007-07-10 11:54 51°20.135 2°37.269 3.9 -999 15.6 101200 73
2007-07-10 11:55 51°20.111 2°37.249 4.2 277 15.5 101210 72
2007-07-10 11:56 51°20.086 2°37.213 4.4 348 15.3 101210 73
2007-07-10 11:57 51°20.062 2°37.166 4.3 345 15.3 101200 74
2007-07-10 11:58 51°20.05 2°37.107 4.9 283 15.4 101200 76
2007-07-10 11:59 51°20.045 2°37.062 3.9 336 15.5 101210 75
2007-07-10 12:00 51°20.041 2°37.029 3.1 278 15.5 101210 73
2007-07-10 12:01 51°20.039 2°37.005 3.5 337 15.6 101200 73
2007-07-10 12:02 51°20.039 2°36.988 3.3 340 15.6 101200 73
2007-07-10 12:03 51°20.039 2°36.977 4.1 337 15.6 101200 73
2007-07-10 12:04 51°20.04 2°36.97 3.3 333 15.7 101210 73
2007-07-10 12:05 51°20.041 2°36.959 3.8 284 15.8 101210 73
2007-07-10 12:06 51°20.041 2°36.953 2.8 339 15.7 101210 72
2007-07-10 12:07 51°20.041 2°36.95 3.1 344 15.8 101210 72
2007-07-10 12:08 51°20.041 2°36.949 3.4 349 15.7 101210 73
2007-07-10 12:09 51°20.04 2°36.951 3.7 356 15.6 101210 74
2007-07-10 12:10 51°20.04 2°36.955 2.9 3 15.4 101210 75
2007-07-10 12:11 51°20.04 2°36.96 3.2 5 15.3 101210 77
2007-07-10 12:12 51°20.041 2°36.964 4.4 11 15.2 101220 77
2007-07-10 12:13 51°20.042 2°36.969 4 16 15.2 101210 77
2007-07-10 12:14 51°20.043 2°36.972 3 21 15.2 101220 76
2007-07-10 12:15 51°20.045 2°36.974 2.9 27 15.2 101210 76
2007-07-10 12:16 51°20.047 2°36.977 3.7 24 15.3 101220 77
2007-07-10 12:17 51°20.049 2°36.979 4.5 38 15.5 101210 78
2007-07-10 12:18 51°20.051 2°36.981 3.5 37 15.5 101220 76
2007-07-10 12:19 51°20.053 2°36.983 3.3 37 15.4 101210 75
2007-07-10 12:20 51°20.056 2°36.984 4.1 38 15.4 101210 75
2007-07-10 12:21 51°20.058 2°36.986 4.1 36 15.4 101210 75
2007-07-10 12:22 51°20.06 2°36.987 3.7 35 15.4 101220 75
2007-07-10 12:23 51°20.063 2°36.987 3.8 31 15.4 101220 75
2007-07-10 12:24 51°20.065 2°36.987 4 37 15.4 101220 74
2007-07-10 12:25 51°20.068 2°36.988 4.7 34 15.4 101220 74
2007-07-10 12:26 51°20.07 2°36.988 4 28 15.4 101210 73
2007-07-10 12:27 51°20.074 2°36.989 4 31 15.4 101220 73
2007-07-10 12:28 51°20.077 2°36.989 4.9 34 15.4 101220 72
2007-07-10 12:29 51°20.081 2°36.989 4.1 34 15.4 101210 71
2007-07-10 12:30 51°20.084 2°36.989 3.5 37 15.4 101210 70
2007-07-10 12:31 51°20.087 2°36.987 4.1 37 15.4 101220 70
2007-07-10 12:32 51°20.09 2°36.986 4.3 37 15.4 101210 70
2007-07-10 12:33 51°20.087 2°36.987 3.7 32 15.5 101220 70
2007-07-10 12:34 51°20.054 2°36.967 4.1 358 15.5 101210 71
2007-07-10 12:35 51°20.031 2°36.909 5 349 15.5 101220 71
2007-07-10 12:36 51°20.025 2°36.893 3.1 359 15.4 101210 71
2007-07-10 12:37 51°20.021 2°36.863 3.6 279 15.3 101210 71
2007-07-10 12:38 51°20.052 2°36.82 4.5 277 15.4 101210 72
2007-07-10 12:39 51°20.07 2°36.816 3.6 278 15.6 101220 72
2007-07-10 12:40 51°20.082 2°36.833 4.6 31 15.6 101220 71
2007-07-10 12:41 51°20.094 2°36.869 4.5 79 15.7 101220 70
2007-07-10 12:42 51°20.101 2°36.876 3 279 15.7 101220 69
2007-07-10 12:43 51°20.111 2°36.881 5.2 284 15.8 101220 69
2007-07-10 12:44 51°20.124 2°36.89 3 280 15.9 101220 69
2007-07-10 12:45 51°20.121 2°36.886 4.1 284 15.9 101220 68
2007-07-10 12:46 51°20.115 2°36.881 2.7 278 15.9 101220 68
2007-07-10 12:47 51°20.108 2°36.875 3.4 80 15.9 101220 67
2007-07-10 12:48 51°20.11 2°36.889 3.4 78 16 101220 68
2007-07-10 12:49 51°20.114 2°36.927 3.8 82 15.8 101220 68
2007-07-10 12:50 51°20.109 2°36.921 4.6 75 15.8 101220 68
2007-07-10 12:51 51°20.106 2°36.92 3.5 81 15.7 101220 68
2007-07-10 12:52 51°20.102 2°36.915 4.8 278 15.7 101220 68
2007-07-10 12:53 51°20.097 2°36.909 4.2 277 15.7 101220 68
2007-07-10 12:54 51°20.092 2°36.903 2.6 280 15.7 101220 67
2007-07-10 12:55 51°20.088 2°36.897 4.6 279 15.9 101220 68
2007-07-10 12:56 51°20.085 2°36.891 6.5 285 15.9 101220 68
2007-07-10 12:57 51°20.08 2°36.885 4.7 279 16 101220 68
2007-07-10 12:58 51°20.076 2°36.88 4.7 277 16.1 101220 68
2007-07-10 12:59 51°20.072 2°36.876 4.8 284 16.1 101220 67
2007-07-10 13:00 51°20.067 2°36.872 5.1 278 16.1 101220 67
2007-07-10 13:01 51°20.062 2°36.868 5.9 278 16.1 101220 67
2007-07-10 13:02 51°20.057 2°36.863 4.7 284 16.2 101220 67
2007-07-10 13:03 51°20.052 2°36.859 3.5 277 16.3 101220 69
2007-07-10 13:04 51°20.047 2°36.855 3.3 283 16.3 101220 69
2007-07-10 13:05 51°20.041 2°36.85 3.2 284 16.3 101220 69
2007-07-10 13:06 51°20.035 2°36.845 3.6 279 16.2 101220 68
2007-07-10 13:07 51°20.03 2°36.839 4.9 281 16.3 101220 70
2007-07-10 13:08 51°20.024 2°36.833 5.4 284 16.3 101220 71
2007-07-10 13:09 51°20.018 2°36.827 4.9 278 16.2 101220 69
2007-07-10 13:10 51°20.012 2°36.821 5.7 280 16.2 101220 69
2007-07-10 13:11 51°20.005 2°36.813 6 277 16.2 101220 69
2007-07-10 13:12 51°19.997 2°36.805 4.1 283 16.2 101220 70
2007-07-10 13:13 51°19.989 2°36.797 4.3 281 16.3 101220 71
2007-07-10 13:14 51°19.981 2°36.789 4.3 278 16.3 101220 70
2007-07-10 13:15 51°19.973 2°36.782 3.3 276 16.2 101230 70
2007-07-10 13:16 51°19.964 2°36.775 4 283 16 101220 70
2007-07-10 13:17 51°19.962 2°36.775 4.7 279 16 101220 70
2007-07-10 13:18 51°19.987 2°36.882 2 82 16 101220 71
2007-07-10 13:19 51°19.889 2°37.111 1.6 278 16.1 101230 71
2007-07-10 13:20 51°19.771 2°37.384 1.5 280 16.1 101230 70
2007-07-10 13:21 51°19.651 2°37.656 1.9 276 16.1 101230 69
2007-07-10 13:22 51°19.531 2°37.928 1.8 277 16.3 101230 70
2007-07-10 13:23 51°19.413 2°38.196 1.6 280 16.3 101230 69
2007-07-10 13:24 51°19.289 2°38.475 2.6 282 16.4 101230 69
2007-07-10 13:25 51°19.167 2°38.751 2.9 278 16.5 101230 69
2007-07-10 13:26 51°19.047 2°39.03 2.5 277 16.5 101230 68
2007-07-10 13:27 51°18.929 2°39.312 3.7 278 16.6 101230 68
2007-07-10 13:28 51°18.809 2°39.593 2.8 277 16.6 101230 69
2007-07-10 13:29 51°18.69 2°39.872 1.9 285 16.6 101230 69
2007-07-10 13:30 51°18.568 2°40.148 2.7 285 16.6 101230 69
2007-07-10 13:31 51°18.45 2°40.414 2 285 16.7 101230 69
2007-07-10 13:32 51°18.329 2°40.679 2 277 16.7 101240 68
2007-07-10 13:33 51°18.207 2°40.944 3 279 16.7 101240 68
2007-07-10 13:34 51°18.086 2°41.215 2.6 285 16.8 101230 69
2007-07-10 13:35 51°17.965 2°41.489 2.7 279 16.7 101230 68
2007-07-10 13:36 51°17.844 2°41.764 3.2 284 16.7 101240 68
2007-07-10 13:37 51°17.719 2°42.036 3.7 279 16.8 101230 69
2007-07-10 13:38 51°17.595 2°42.309 1.9 277 16.7 101230 68
2007-07-10 13:39 51°17.474 2°42.584 3.4 285 16.7 101230 68
2007-07-10 13:40 51°17.359 2°42.851 3.4 285 16.7 101230 68
2007-07-10 13:41 51°17.246 2°43.111 3 278 16.7 101230 68
2007-07-10 13:42 51°17.128 2°43.376 3.1 282 16.7 101230 68
2007-07-10 13:43 51°17.007 2°43.647 2.5 283 16.7 101230 68
2007-07-10 13:44 51°16.883 2°43.917 2.3 283 16.7 101230 69
2007-07-10 13:45 51°16.761 2°44.19 2.5 285 16.7 101230 69
2007-07-10 13:46 51°16.642 2°44.46 3.3 282 16.8 101230 70
2007-07-10 13:47 51°16.521 2°44.739 2 284 16.8 101220 69
2007-07-10 13:48 51°16.407 2°45.017 3.9 284 16.7 101230 69
2007-07-10 13:49 51°16.33 2°45.321 3.8 283 16.7 101220 69
2007-07-10 13:50 51°16.251 2°45.624 4.2 277 16.6 101220 69
2007-07-10 13:51 51°16.175 2°45.928 3.5 280 16.5 101230 69
2007-07-10 13:52 51°16.101 2°46.232 3.8 278 16.5 101220 69
2007-07-10 13:53 51°16.039 2°46.54 3.7 279 16.4 101220 68
2007-07-10 13:54 51°15.976 2°46.848 3.6 277 16.4 101220 69
2007-07-10 13:55 51°15.911 2°47.153 4.6 283 16.4 101230 70
2007-07-10 13:56 51°15.849 2°47.456 5.3 279 16.4 101220 70
2007-07-10 13:57 51°15.788 2°47.757 3.6 278 16.4 101220 70
2007-07-10 13:58 51°15.726 2°48.062 5.4 283 16.4 101220 70
2007-07-10 13:59 51°15.664 2°48.367 4.5 285 16.4 101230 70
2007-07-10 14:00 51°15.602 2°48.673 4 280 16.4 101230 71
2007-07-10 14:01 51°15.541 2°48.981 4.3 278 16.4 101220 71
2007-07-10 14:02 51°15.477 2°49.29 5.3 283 16.4 101220 71
2007-07-10 14:03 51°15.41 2°49.597 5.5 276 16.3 101220 71
2007-07-10 14:04 51°15.346 2°49.902 4.2 278 16.4 101220 71
2007-07-10 14:05 51°15.286 2°50.208 4.6 282 16.3 101220 71
2007-07-10 14:06 51°15.224 2°50.513 4.1 278 16.4 101220 72
2007-07-10 14:07 51°15.169 2°50.82 4.7 278 16.4 101210 72
2007-07-10 14:08 51°15.118 2°51.125 5.6 284 16.3 101220 72
2007-07-10 14:09 51°15.073 2°51.434 5.3 284 16.4 101210 72
2007-07-10 14:10 51°15.026 2°51.745 4.9 284 16.3 101210 72
2007-07-10 14:11 51°14.975 2°52.053 4.9 282 16.4 101210 72
2007-07-10 14:12 51°14.931 2°52.364 4.4 279 16.4 101210 72
2007-07-10 14:13 51°14.886 2°52.677 5.9 279 16.5 101220 73
2007-07-10 14:14 51°14.84 2°52.991 5.4 283 16.5 101210 73
2007-07-10 14:15 51°14.794 2°53.31 4.7 277 16.4 101210 71
2007-07-10 14:16 51°14.746 2°53.628 4.9 277 16.4 101220 72
2007-07-10 14:17 51°14.7 2°53.949 5.1 277 16.3 101210 72
2007-07-10 14:18 51°14.642 2°54.264 4.9 278 16.3 101220 72
2007-07-10 14:19 51°14.557 2°54.561 2.6 279 16.3 101220 72
2007-07-10 14:20 51°14.454 2°54.843 3.6 283 16.3 101210 72
2007-07-10 14:21 51°14.339 2°55.118 4 276 16.3 101210 72
2007-07-10 14:22 51°14.203 2°55.345 1.4 286 16.4 101220 73
2007-07-10 14:23 51°14.058 2°55.464 2 281 16.4 101220 73
2007-07-10 14:24 51°13.915 2°55.567 0.4 353 16.5 101220 72
2007-07-10 14:25 51°13.792 2°55.671 0.8 285 16.5 101220 72
2007-07-10 14:26 51°13.705 2°55.812 0.9 285 16.7 101220 72
2007-07-10 14:27 51°13.646 2°55.932 1.9 75 16.8 101220 72
2007-07-10 14:28 51°13.615 2°56.032 1.9 84 16.9 101220 70
2007-07-10 14:29 51°13.6 2°56.088 5.3 83 16.8 101220 69